Location: Luxembourg
(49.6117°N, 6.1300°E)
Time: 04:58:04
(UTC+01:00)

OTV 5 (USA 277) - Pass Details

Date: 02 February 2019
Orbit: 342 x 346 km, 54.5° (Epoch: 17 February)

Event Time Altitude Azimuth Distance (km) Brightness Sun altitude
Exits shadow 07:30:02 - 291° (WNW) 1,397 ? -6.4°
Reaches altitude 10° 07:30:18 10° 293° (WNW) 1,297 ? -6.3°
Maximum altitude 07:32:53 29° 357° (N) 668 ? -5.9°
Drops below altitude 10° 07:35:28 10° 60° (ENE) 1,299 ? -5.5°
Sets 07:37:37 0° 73° (ENE) 2,140 ? -5.2°
